| time (UTC) | temp F | wind direction | speed knots | gust knots | rain 1hr in | rain 24hr in | rain mn in | humidity % | barometer mb |
| 20260507093005 | 57 | 267 | 0.0 | 0.0 | 0.00 | 0.00 | 0.00 | 87 | 1017.3 |
| 20260507091534 | 57 | 236 | 0.0 | 0.0 | 0.00 | 0.00 | 0.00 | 86 | 1017.3 |
| 20260507090022 | 57 | 226 | 0.0 | 0.0 | 0.00 | 0.00 | 0.00 | 86 | 1017.3 |
| 20260507084524 | 57 | 193 | 0.0 | 0.0 | 0.00 | 0.00 | 0.00 | 86 | 1017.4 |
| 20260507083020 | 58 | 242 | 0.0 | 0.0 | 0.00 | 0.00 | 0.00 | 85 | 1017.4 |
| 20260507081521 | 58 | 219 | 0.0 | 0.0 | 0.00 | 0.00 | 0.00 | 85 | 1017.5 |
| 20260507080020 | 58 | 233 | 0.0 | 0.0 | 0.00 | 0.00 | 0.00 | 86 | 1017.4 |
| 20260507074523 | 58 | 233 | 0.0 | 0.0 | 0.00 | 0.00 | 0.00 | 85 | 1017.4 |
| 20260507073020 | 59 | 233 | 0.0 | 0.0 | 0.00 | 0.00 | 0.00 | 84 | 1017.5 |
| 20260507071540 | 59 | 233 | 0.0 | 0.0 | 0.00 | 0.00 | 0.00 | 86 | 1017.4 |
| 20260507070050 | 59 | 235 | 0.0 | 0.0 | 0.00 | 0.00 | 0.00 | 86 | 1017.4 |
| 20260507064657 | 60 | 227 | 0.0 | 0.0 | 0.00 | 0.00 | 0.00 | 85 | 1017.3 |
| 20260507063052 | 60 | 217 | 0.0 | 0.0 | 0.00 | 0.00 | 0.00 | 84 | 1017.3 |
| 20260507061555 | 61 | 217 | 0.0 | 0.0 | 0.00 | 0.00 | 0.00 | 83 | 1017.2 |
| 20260507060055 | 61 | 266 | 0.0 | 0.0 | 0.00 | 0.00 | 0.00 | 82 | 1017.2 |
| 20260507054556 | 61 | 231 | 0.0 | 0.0 | 0.00 | 0.00 | 0.00 | 82 | 1017.1 |
| 20260507053055 | 62 | 243 | 0.0 | 0.0 | 0.00 | 0.00 | 0.00 | 82 | 1017.2 |
| 20260507051600 | 62 | 243 | 0.0 | 0.0 | 0.00 | 0.00 | 0.00 | 82 | 1017.1 |
| 20260507050054 | 63 | 308 | 0.0 | 0.0 | 0.00 | 0.00 | 0.00 | 82 | 1017.0 |
| 20260507044555 | 64 | 307 | 0.0 | 0.0 | 0.00 | 0.00 | 0.00 | 80 | 1017.0 |
| 20260507043055 | 65 | 295 | 0.0 | 0.0 | 0.00 | 0.00 | 0.00 | 78 | 1016.9 |
| 20260507041555 | 65 | 290 | 0.0 | 0.0 | 0.00 | 0.00 | 0.00 | 77 | 1016.8 |
| 20260507040055 | 67 | 323 | 0.0 | 0.0 | 0.00 | 0.00 | 0.00 | 72 | 1016.6 |
| 20260507034554 | 68 | 323 | 0.0 | 0.0 | 0.00 | 0.00 | 0.00 | 68 | 1016.3 |
| 20260507033101 | 69 | 323 | 0.0 | 0.0 | 0.00 | 0.00 | 0.00 | 66 | 1016.3 |
| 20260507031601 | 71 | 323 | 0.0 | 0.0 | 0.00 | 0.00 | 0.00 | 65 | 1016.1 |
| 20260507030109 | 72 | 323 | 0.0 | 0.0 | 0.00 | 0.00 | 0.00 | 61 | 1016.1 |
| 20260507024608 | 75 | 323 | 0.0 | 0.0 | 0.00 | 0.00 | 0.00 | 56 | 1016.0 |
| 20260507023108 | 76 | 323 | 0.0 | 0.0 | 0.00 | 0.00 | 0.00 | 53 | 1015.9 |
| 20260507021610 | 76 | 323 | 0.0 | 0.0 | 0.00 | 0.00 | 0.00 | 52 | 1015.8 |
| 20260507020108 | 77 | 345 | 0.0 | 0.0 | 0.00 | 0.00 | 0.00 | 52 | 1015.9 |
| 20260507014608 | 76 | 4 | 0.0 | 0.0 | 0.00 | 0.00 | 0.00 | 53 | 1016.0 |
| 20260507013120 | 76 | 359 | 0.0 | 0.0 | 0.00 | 0.00 | 0.00 | 53 | 1015.9 |
| 20260507011523 | 76 | 328 | 0.0 | 0.0 | 0.00 | 0.00 | 0.00 | 52 | 1016.0 |
| 20260507010026 | 76 | 41 | 0.0 | 0.0 | 0.00 | 0.00 | 0.00 | 52 | 1016.1 |
| 20260507004524 | 77 | 326 | 0.0 | 2.6 | 0.00 | 0.00 | 0.00 | 52 | 1016.0 |
| 20260507003024 | 76 | 340 | 0.0 | 0.9 | 0.00 | 0.00 | 0.00 | 53 | 1016.0 |
| 20260507001529 | 75 | 71 | 0.0 | 0.0 | 0.00 | 0.00 | 0.00 | 52 | 1016.1 |
| 20260507000023 | 76 | 51 | 0.0 | 1.7 | 0.00 | 0.00 | 0.00 | 52 | 1016.0 |
| 20260506234530 | 76 | 355 | 0.0 | 0.9 | 0.00 | 0.00 | 0.00 | 54 | 1016.2 |
| 20260506233022 | 76 | 3 | 0.0 | 2.6 | 0.00 | 0.00 | 0.00 | 53 | 1016.2 |
| 20260506231527 | 75 | 4 | 0.0 | 3.5 | 0.00 | 0.00 | 0.00 | 53 | 1016.3 |
| 20260506230026 | 75 | 37 | 0.0 | 4.3 | 0.00 | 0.00 | 0.00 | 55 | 1016.6 |
| 20260506224523 | 74 | 28 | 0.9 | 3.5 | 0.00 | 0.00 | 0.00 | 54 | 1016.9 |
| 20260506223022 | 74 | 12 | 0.0 | 0.0 | 0.00 | 0.00 | 0.00 | 54 | 1017.0 |
| 20260506221522 | 73 | 323 | 0.0 | 1.7 | 0.00 | 0.00 | 0.00 | 55 | 1017.3 |
| 20260506220028 | 74 | 36 | 0.0 | 5.2 | 0.00 | 0.00 | 0.00 | 55 | 1017.6 |
| 20260506214522 | 73 | 17 | 0.0 | 0.9 | 0.00 | 0.00 | 0.00 | 55 | 1017.8 |
| 20260506213007 | 73 | 345 | 0.0 | 3.5 | 0.00 | 0.00 | 0.00 | 55 | 1018.0 |
| 20260506211511 | 72 | 23 | 0.0 | 3.5 | 0.00 | 0.00 | 0.00 | 56 | 1018.2 |
| 20260506210012 | 71 | 7 | 0.0 | 5.2 | 0.00 | 0.00 | 0.00 | 59 | 1018.3 |
| 20260506204507 | 72 | 38 | 0.0 | 2.6 | 0.00 | 0.00 | 0.00 | 58 | 1018.5 |
| 20260506203007 | 73 | 324 | 0.0 | 2.6 | 0.00 | 0.00 | 0.00 | 55 | 1018.6 |
| 20260506201508 | 71 | 31 | 0.0 | 5.2 | 0.00 | 0.00 | 0.00 | 59 | 1018.8 |
| 20260506200023 | 70 | 345 | 0.0 | 7.0 | 0.00 | 0.00 | 0.00 | 59 | 1018.9 |
| 20260506194522 | 70 | 25 | 0.9 | 3.5 | 0.00 | 0.00 | 0.00 | 57 | 1019.0 |
| 20260506193024 | 70 | 4 | 0.0 | 2.6 | 0.00 | 0.00 | 0.00 | 59 | 1019.3 |
| 20260506191522 | 70 | 11 | 0.0 | 2.6 | 0.00 | 0.00 | 0.00 | 60 | 1019.5 |
| 20260506190022 | 70 | 35 | 0.0 | 0.0 | 0.00 | 0.00 | 0.00 | 63 | 1019.5 |
| 20260506184536 | 69 | 30 | 0.0 | 0.9 | 0.00 | 0.00 | 0.00 | 64 | 1019.7 |
| 20260506183021 | 68 | 25 | 0.0 | 0.9 | 0.00 | 0.00 | 0.00 | 64 | 1019.7 |
| 20260506181551 | 68 | 354 | 0.0 | 0.0 | 0.00 | 0.00 | 0.00 | 65 | 1019.8 |
| 20260506174601 | 66 | 301 | 0.0 | 0.0 | 0.00 | 0.00 | 0.00 | 69 | 1019.8 |
| 20260506173112 | 65 | 304 | 0.0 | 0.9 | 0.00 | 0.00 | 0.00 | 70 | 1019.9 |
| 20260506171610 | 64 | 316 | 0.0 | 0.9 | 0.00 | 0.00 | 0.00 | 74 | 1019.9 |
| 20260506170115 | 63 | 340 | 0.0 | 0.0 | 0.00 | 0.00 | 0.00 | 76 | 1020.0 |
| 20260506164521 | 62 | 290 | 0.0 | 0.0 | 0.00 | 0.00 | 0.00 | 77 | 1019.9 |
| 20260506163019 | 61 | 304 | 0.0 | 0.0 | 0.00 | 0.00 | 0.00 | 77 | 1019.8 |
| 20260506161533 | 61 | 245 | 0.0 | 0.0 | 0.00 | 0.00 | 0.00 | 78 | 1019.9 |
| 20260506160032 | 60 | 290 | 0.0 | 0.0 | 0.00 | 0.00 | 0.00 | 79 | 1019.9 |
| 20260506154531 | 59 | 238 | 0.0 | 0.0 | 0.00 | 0.00 | 0.00 | 80 | 1019.8 |
| 20260506153032 | 59 | 300 | 0.0 | 0.0 | 0.00 | 0.00 | 0.00 | 81 | 1019.9 |
| 20260506151531 | 59 | 315 | 0.0 | 0.0 | 0.00 | 0.00 | 0.00 | 82 | 1019.8 |
| 20260506150031 | 58 | 231 | 0.0 | 0.0 | 0.00 | 0.00 | 0.00 | 82 | 1019.8 |
| 20260506144532 | 58 | 266 | 0.0 | 0.0 | 0.00 | 0.00 | 0.00 | 83 | 1019.7 |
| 20260506143034 | 57 | 286 | 0.0 | 0.0 | 0.00 | 0.00 | 0.00 | 84 | 1019.7 |
| 20260506141530 | 57 | 267 | 0.0 | 0.0 | 0.00 | 0.00 | 0.00 | 86 | 1019.6 |
| 20260506140030 | 57 | 233 | 0.0 | 0.0 | 0.00 | 0.00 | 0.00 | 86 | 1019.3 |
| 20260506134530 | 56 | 233 | 0.0 | 0.0 | 0.00 | 0.00 | 0.00 | 86 | 1019.2 |
| 20260506133033 | 56 | 233 | 0.0 | 0.0 | 0.00 | 0.00 | 0.00 | 86 | 1019.2 |
| 20260506131536 | 56 | 229 | 0.0 | 0.0 | 0.00 | 0.00 | 0.00 | 87 | 1019.1 |
| 20260506130030 | 56 | 228 | 0.0 | 0.0 | 0.00 | 0.00 | 0.00 | 87 | 1019.1 |
| 20260506124531 | 56 | 233 | 0.0 | 0.0 | 0.00 | 0.00 | 0.00 | 87 | 1019.0 |
| 20260506123050 | 56 | 233 | 0.0 | 0.0 | 0.00 | 0.00 | 0.00 | 88 | 1018.9 |
| 20260506121614 | 56 | 200 | 0.0 | 0.0 | 0.00 | 0.00 | 0.00 | 87 | 1018.7 |
| 20260506120129 | 57 | 233 | 0.0 | 0.0 | 0.00 | 0.00 | 0.00 | 87 | 1018.7 |
| 20260506114614 | 57 | 196 | 0.0 | 0.0 | 0.00 | 0.00 | 0.00 | 87 | 1018.7 |
| 20260506113115 | 56 | 219 | 0.0 | 0.0 | 0.00 | 0.00 | 0.00 | 86 | 1018.7 |
| 20260506111616 | 57 | 207 | 0.0 | 0.0 | 0.00 | 0.00 | 0.00 | 86 | 1018.5 |
| 20260506110016 | 56 | 250 | 0.0 | 0.0 | 0.00 | 0.00 | 0.00 | 86 | 1018.4 |
| 20260506104515 | 57 | 229 | 0.0 | 0.0 | 0.00 | 0.00 | 0.00 | 86 | 1018.2 |
| 20260506103025 | 57 | 232 | 0.0 | 0.0 | 0.00 | 0.00 | 0.00 | 86 | 1018.1 |
| 20260506101514 | 57 | 226 | 0.0 | 0.0 | 0.00 | 0.00 | 0.00 | 86 | 1018.0 |
| 20260506100033 | 57 | 231 | 0.0 | 0.0 | 0.00 | 0.01 | 0.00 | 85 | 1018.0 |
| 20260506094535 | 57 | 290 | 0.0 | 0.0 | 0.00 | 0.01 | 0.00 | 85 | 1017.9 |